This demonstration page uses our WeatherBlox Daily Observations layout. Learn more.

Left ArrowRight Arrow

44.8408, -93.29828

Hourly Observations for March 6, 2022

Temp ( °F °C ) Dew Point ( °F °C ) Humidity (%) Winds ( mph kmh ) Pressure ( in mb ) Visibility ( mi km ) Precip ( " mm )
12:09 am 00:09 Cloudy with Light Snow 31 -0.6 28 -2.2 89 89 NNW 18 30 29.67 1005 3 4 0.00 0.00
12:22 am 00:22 Cloudy with Light Wintry Mix 30 -1.1 28 -2.2 92 92 NW 16 26 29.67 1005 2 3 0.02 0.51
12:41 am 00:41 Cloudy with Light Snow 30 -1.1 28 -2.2 92 92 NW 16 26 29.68 1005 2 3 0.03 0.76
12:48 am 00:48 Cloudy with Light Snow 30 -1 28 -2 93 93 NW 15 24 29.69 1005 2 2 0.04 1.02
12:53 am 00:53 Cloudy with Light Snow 30 -1.1 27 -2.8 88 88 NW 18 30 29.67 1005 1 2 0.05 1.27
1:02 am 01:02 Cloudy with Light Snow 29 -1.7 27 -2.8 92 92 NW 17 28 29.70 1006 1 1 0.01 0.25
1:20 am 01:20 Mostly Cloudy with Snow 29 -1.7 27 -2.8 92 92 NW 17 28 29.72 1006 1 1 0.04 1.02
1:37 am 01:37 Mostly Cloudy with Heavy Snow 29 -1.7 27 -2.8 92 92 NW 21 33 29.73 1007 0 0 0.08 2.03
1:44 am 01:44 Mostly Cloudy with Heavy Snow 29 -1.7 27 -2.8 92 92 NW 18 30 29.73 1007 0 0 0.10 2.54
1:53 am 01:53 Mostly Cloudy with Heavy Snow 29 -1.7 27 -2.8 92 92 NW 16 26 29.71 1006 0 0 0.11 2.79
2:22 am 02:22 Mostly Cloudy with Snow 28 -2.2 26 -3.3 92 92 WNW 15 24 29.76 1008 1 1 0.17 4.32
2:36 am 02:36 Windy with Snow Likely 28 -2.2 26 -3.3 92 92 WNW 20 31 29.77 1008 2 2 0.17 4.32
2:40 am 02:40 Cloudy with Light Snow 28 -2.2 26 -3.3 92 92 NW 18 30 29.77 1008 2 3 0.17 4.32
2:45 am 02:45 Cloudy with Light Snow 28 -2.2 26 -3.3 92 92 WNW 15 24 29.78 1009 1 2 0.17 4.32
2:53 am 02:53 Cloudy with Light Snow 28 -2.2 26 -3.3 92 92 WNW 14 22 29.76 1008 2 2 0.17 4.32
2:58 am 02:58 Cloudy with Light Snow 28 -2.2 26 -3.3 92 92 WNW 16 26 29.78 1009 3 5 0.00 0.00
3:23 am 03:23 Cloudy with Light Snow 28 -2.2 25 -3.9 88 88 NW 14 22 29.79 1009 2 3 0.01 0.25
3:30 am 03:30 Cloudy with Light Snow 28 -2.2 25 -3.9 88 88 WNW 13 20 29.80 1009 2 3 0.01 0.25
3:39 am 03:39 Cloudy with Light Snow 28 -2.2 25 -3.9 88 88 NW 17 28 29.80 1009 2 3 0.01 0.25
3:53 am 03:53 Cloudy with Light Snow 28 -2.2 25 -3.9 88 88 WNW 14 22 29.79 1009 4 6 0.01 0.25
4:51 am 04:51 Cloudy 28 -2 25 -4 86 86 WNW 13 20 29.84 1011 10 16 0.00 0.00
4:53 am 04:53 Cloudy 28 -2.2 24 -4.4 85 85 W 12 19 29.82 1010 10 16 0.00 0.00
5:53 am 05:53 Cloudy 25 -3.9 21 -6.1 85 85 WNW 17 28 29.87 1012 10 16 0.00 0.00
6:53 am 06:53 Cloudy 24 -4.4 20 -6.7 84 84 W 14 22 29.91 1013 10 16 0.00 0.00
7:53 am 07:53 Cloudy 25 -3.9 20 -6.7 81 81 WNW 12 19 29.95 1014 10 16 0.00 0.00
8:53 am 08:53 Cloudy 25 -3.9 20 -6.7 81 81 WNW 12 19 29.98 1015 10 16 0.00 0.00
9:53 am 09:53 Cloudy 27 -2.8 21 -6.1 78 78 WNW 13 20 30.01 1016 10 16 0.00 0.00
10:53 am 10:53 Cloudy 27 -2.8 21 -6.1 78 78 WNW 15 24 30.05 1018 10 16 0.00 0.00
11:53 am 11:53 Cloudy 28 -2.2 21 -6.1 75 75 W 13 20 30.07 1018 10 16 0.00 0.00
12:53 pm 12:53 Cloudy 28 -2.2 22 -5.6 78 78 WNW 15 24 30.08 1019 10 16 0.00 0.00
1:53 pm 13:53 Cloudy 29 -1.7 22 -5.6 75 75 W 14 22 30.08 1019 10 16 0.00 0.00
2:53 pm 14:53 Cloudy 29 -1.7 22 -5.6 75 75 W 10 17 30.10 1019 10 16 0.00 0.00
3:53 pm 15:53 Cloudy 28 -2.2 22 -5.6 78 78 W 10 17 30.11 1020 10 16 0.00 0.00
4:53 pm 16:53 Cloudy 28 -2.2 21 -6.1 75 75 NW 9 15 30.11 1020 10 16 0.00 0.00
5:53 pm 17:53 Cloudy 28 -2.2 21 -6.1 75 75 WNW 8 13 30.12 1020 10 16 0.00 0.00
6:29 pm 18:29 Partly Cloudy 26 -3.3 20 -6.7 78 78 WNW 7 11 30.15 1021 10 16 0.00 0.00
6:53 pm 18:53 Mostly Clear 26 -3.3 20 -6.7 78 78 W 7 11 30.14 1021 10 16 0.00 0.00
7:32 pm 19:32 Mostly Cloudy 26 -3.3 20 -6.7 78 78 W 12 19 30.16 1021 10 16 0.00 0.00
7:53 pm 19:53 Mostly Cloudy 25 -3.9 19 -7.2 78 78 WNW 9 15 30.13 1020 10 16 0.00 0.00
8:44 pm 20:44 Mostly Cloudy 23 -5 18 -7.8 81 81 WNW 8 13 30.13 1020 10 16 0.00 0.00
8:53 pm 20:53 Mostly Cloudy 22 -5.6 18 -7.8 85 85 NW 10 17 30.11 1020 10 16 0.00 0.00
9:53 pm 21:53 Partly Cloudy 23 -5 16 -8.9 74 74 NW 14 22 30.11 1020 10 16 0.00 0.00
10:53 pm 22:53 Partly Cloudy 22 -5.6 15 -9.4 75 75 NNW 10 17 30.14 1021 10 16 0.00 0.00
11:53 pm 23:53 Cloudy 22 -5.6 15 -9.4 75 75 NW 9 15 30.15 1021 10 16 0.00 0.00

Powered by AerisWeather